TimeEDT,TemperatureF,Dew PointF,Humidity,Sea Level PressureIn,VisibilityMPH,Wind Direction,Wind SpeedMPH,Gust SpeedMPH,PrecipitationIn,Events,Conditions,WindDirDegrees,DateUTC
12:53 AM,10.0,3.0,73,30.13,10.0,Calm,Calm,-,N/A,,Clear,0,2014-03-25 04:53:00
1:53 AM,9.0,1.9,73,30.13,10.0,Calm,Calm,-,N/A,,Clear,0,2014-03-25 05:53:00
2:53 AM,8.1,1.9,76,30.13,10.0,Calm,Calm,-,N/A,,Clear,0,2014-03-25 06:53:00
3:53 AM,7.0,1.9,80,30.13,10.0,Calm,Calm,-,N/A,,Clear,0,2014-03-25 07:53:00
4:53 AM,6.1,1.0,80,30.14,10.0,Calm,Calm,-,N/A,,Clear,0,2014-03-25 08:53:00
5:53 AM,6.1,1.0,80,30.13,10.0,Calm,Calm,-,N/A,,Clear,0,2014-03-25 09:53:00
6:53 AM,7.0,1.9,80,30.14,10.0,Calm,Calm,-,N/A,,Clear,0,2014-03-25 10:53:00
7:53 AM,15.1,9.0,77,30.14,10.0,Calm,Calm,-,N/A,,Clear,0,2014-03-25 11:53:00
8:53 AM,24.1,9.0,53,30.12,10.0,East,3.5,-,N/A,,Clear,80,2014-03-25 12:53:00
9:53 AM,27.0,9.0,47,30.11,10.0,ESE,8.1,-,N/A,,Overcast,120,2014-03-25 13:53:00
10:28 AM,26.1,18.0,71,30.10,2.5,South,6.9,-,0.00,Snow,Light Snow,180,2014-03-25 14:28:00
10:32 AM,25.0,18.0,75,30.11,1.2,SSE,5.8,-,0.00,Snow,Light Snow,150,2014-03-25 14:32:00
10:40 AM,24.1,19.9,84,30.10,0.5,Variable,5.8,-,0.00,Fog-Snow,Snow,0,2014-03-25 14:40:00
10:53 AM,26.1,21.9,84,30.10,1.5,Variable,6.9,-,0.00,Snow,Light Snow,0,2014-03-25 14:53:00
10:56 AM,26.1,21.0,81,30.10,3.0,SSE,8.1,-,0.00,Snow,Light Snow,150,2014-03-25 14:56:00
11:06 AM,27.0,21.9,81,30.09,9.0,ESE,6.9,-,0.00,,Mostly Cloudy,110,2014-03-25 15:06:00
11:13 AM,27.0,21.0,78,30.09,10.0,SE,6.9,-,0.00,,Mostly Cloudy,140,2014-03-25 15:13:00
11:20 AM,28.0,21.0,75,30.08,10.0,South,8.1,-,0.00,,Scattered Clouds,170,2014-03-25 15:20:00
11:53 AM,28.9,7.0,40,30.08,10.0,WSW,4.6,18.4,0.00,,Clear,250,2014-03-25 15:53:00
12:53 PM,30.0,7.0,38,30.07,10.0,WSW,9.2,-,N/A,,Clear,250,2014-03-25 16:53:00
1:53 PM,32.0,7.0,35,30.07,10.0,SW,11.5,19.6,N/A,,Partly Cloudy,230,2014-03-25 17:53:00
2:53 PM,30.9,6.1,35,30.07,10.0,Variable,5.8,-,N/A,,Partly Cloudy,0,2014-03-25 18:53:00
3:53 PM,32.0,6.1,34,30.06,10.0,Variable,5.8,-,N/A,,Mostly Cloudy,0,2014-03-25 19:53:00
4:53 PM,32.0,10.9,42,30.05,10.0,SSW,6.9,-,N/A,,Mostly Cloudy,200,2014-03-25 20:53:00
5:53 PM,30.9,12.9,47,30.06,10.0,SSW,8.1,-,N/A,,Overcast,210,2014-03-25 21:53:00
6:53 PM,30.0,12.9,49,30.07,10.0,SSW,5.8,-,N/A,,Clear,200,2014-03-25 22:53:00
7:53 PM,30.0,14.0,51,30.07,10.0,Calm,Calm,-,N/A,,Clear,0,2014-03-25 23:53:00
8:53 PM,26.1,16.0,66,30.07,10.0,Calm,Calm,-,N/A,,Clear,0,2014-03-26 00:53:00
9:53 PM,24.1,16.0,71,30.06,10.0,Calm,Calm,-,N/A,,Clear,0,2014-03-26 01:53:00
10:53 PM,23.0,16.0,74,30.07,10.0,Calm,Calm,-,N/A,,Clear,0,2014-03-26 02:53:00
11:53 PM,23.0,17.1,78,30.06,10.0,Calm,Calm,-,N/A,,Clear,0,2014-03-26 03:53:00